Alexandria, LA

6:23 PM CDT on April 24, 2017 (GMT -0500)
Alexandria International

Weather History for KAEX - January, 2008

Change the Weather History Date:

Friday, January 11, 2008

  Actual Average Record
Temperature  
Mean Temperature 49 °F 49 °F  
Max Temperature 62 °F 59 °F 80 °F (1972)
Min Temperature 36 °F 39 °F 9 °F (1982)
Degree Days  
Heating Degree Days 16 16  
Month to date heating degree days 137 176  
Since 1 July heating degree days 724 965  
Moisture  
Dew Point 33 °F    
Average Humidity 58    
Maximum Humidity 83    
Minimum Humidity 28    
Precipitation  
Precipitation 0.00 in 0.16 in 2.81 in (1901)
Month to date precipitation 0.77 1.64  
Year to date precipitation 0.77 1.64  
Snow  
Snow 0.00 in - 2.00 in (1973)
Month to date snowfall 0.0  
Since 1 July snowfall 0.0  
Snow Depth 0.00 in    
Sea Level Pressure  
Sea Level Pressure 29.97 in    
Wind  
Wind Speed 2 mph (West)    
Max Wind Speed 6 mph    
Max Gust Speed -    
Visibility 10 miles    
Events      
T = Trace of Precipitation, MM = Missing Value Source: NWS Daily Summary

Daily Weather History Graph

Daily Weather History Graph

Search for Another Location

Airport or City:

Trip Planner

Search our weather history database for the weather conditions in past years. The results will help you decide how hot, cold, wet, or windy it might be!

Date:

Astronomy

Jan. 11, 2008 Rise Set
Actual Time 7:10 AM CST 5:26 PM CST
Civil Twilight 6:43 AM CST 5:52 PM CST
Nautical Twilight 6:13 AM CST 6:22 PM CST
Astronomical Twilight 5:44 AM CST 6:51 PM CST
Moon 9:20 AM CST (1/11) 8:47 PM CST (1/11)
Length of Visible Light 11h 08m
Length of Day
10h 16m
Waxing Crescent, 11% of the Moon is Illuminated
Jan 11
Waxing Crescent
Jan 15
First Quarter
Jan 22
Full
Jan 29
Last Quarter
Feb 6
New

Hourly Weather History & Observations

Time (CST) Temp. Windchill Dew Point Humidity Pressure Visibility Wind Dir Wind Speed Gust Speed Precip Events Conditions
12:53 AM 46.0 °F 43.9 °F 35.1 °F 66% 29.97 in 10.0 mi NW 4.6 mph - N/A   Clear
1:53 AM 45.0 °F 42.6 °F 36.0 °F 71% 29.97 in 10.0 mi NNW 4.6 mph - N/A   Clear
2:53 AM 43.0 °F 39.5 °F 34.0 °F 71% 29.97 in 10.0 mi NNW 5.8 mph - N/A   Clear
3:53 AM 42.1 °F - 34.0 °F 73% 29.97 in 10.0 mi Calm Calm - N/A   Clear
4:53 AM 39.9 °F - 34.0 °F 79% 29.96 in 10.0 mi Calm Calm - N/A   Clear
5:53 AM 37.9 °F - 32.0 °F 79% 29.98 in 10.0 mi Calm Calm - N/A   Clear
6:53 AM 37.9 °F - 33.1 °F 83% 29.99 in 10.0 mi Calm Calm - N/A   Clear
7:53 AM 39.0 °F - 34.0 °F 82% 30.01 in 10.0 mi Calm Calm - N/A   Clear
8:53 AM 46.0 °F - 36.0 °F 68% 30.02 in 10.0 mi Calm Calm - N/A   Clear
9:53 AM 52.0 °F - 33.1 °F 49% 30.03 in 10.0 mi Variable 3.5 mph - N/A   Clear
10:53 AM 54.0 °F - 33.1 °F 45% 30.02 in 10.0 mi Calm Calm - N/A   Clear
11:53 AM 57.0 °F - 34.0 °F 42% 30.00 in 10.0 mi WSW 3.5 mph - N/A   Clear
12:53 PM 59.0 °F - 33.1 °F 38% 29.96 in 10.0 mi Variable 3.5 mph - N/A   Clear
1:53 PM 60.1 °F - 32.0 °F 35% 29.93 in 10.0 mi Calm Calm - N/A   Clear
2:53 PM 61.0 °F - 30.0 °F 31% 29.93 in 10.0 mi SW 4.6 mph - N/A   Clear
3:53 PM 61.0 °F - 28.0 °F 29% 29.93 in 10.0 mi SSW 3.5 mph - N/A   Clear
4:53 PM 60.1 °F - 27.0 °F 28% 29.92 in 10.0 mi Calm Calm - N/A   Clear
5:53 PM 54.0 °F - 30.9 °F 41% 29.93 in 10.0 mi Calm Calm - N/A   Clear
6:53 PM 50.0 °F - 30.9 °F 48% 29.94 in 10.0 mi Calm Calm - N/A   Clear
7:53 PM 48.0 °F - 32.0 °F 54% 29.95 in 10.0 mi Calm Calm - N/A   Clear
8:53 PM 44.1 °F - 33.1 °F 65% 29.96 in 10.0 mi Calm Calm - N/A   Clear
9:53 PM 43.0 °F - 33.1 °F 68% 29.96 in 10.0 mi Calm Calm - N/A   Clear
10:53 PM 42.1 °F - 35.1 °F 76% 29.96 in 10.0 mi Calm Calm - N/A   Clear
11:53 PM 41.0 °F - 34.0 °F 76% 29.97 in 10.0 mi Calm Calm - N/A   Clear